map of HNC home
Great Circle Mapper logo
HNC - Airport
Location
City:  Hatteras, North Carolina, United States
Name:Billy Mitchell Airport
ICAO / IATA:KHSE / HNC
FAA:HSE

Details
Type:Airport (Airfield)
Use:Public/Civil
Latitude:3513'58"N (35.232788)
Longitude:7537'04"W (-75.617794)
Datum:WGS 1984
Elevation:17 ft (5 m)
Variation:10.9W (WMM2010 magnetic declination)
Runways:1
Longest:3000 × 75 ft (914 × 23 m), paved

Time
Time Zone:UTC-5 (DST-4)
Local Time:

Weather
METAR:KHSE 272151Z AUTO 34010G22KT 10SM FEW026 BKN048 OVC070 09/06 A3000 RMK AO2 RAB18E46 SLP160 P0000 T00940061 TSNO

Related Locations
Nearby:
Farthest:MGV: 11826 mi / 19033 km
Margaret River, WA, AU

Find:

   beyond  
but within

Other Information
Maps:
NOTAMs:
Links:
Sources:

  
flag of United States
flag of North Carolina
  

Sectional Chart

Flight Planning
at skyvector.com

Satellite Image

Google Maps Satellite View

 

Copyright © 2004-2014 Karl L. Swartz. All rights reserved.
The Great Circle Mapper name and logo are trademarks of the Great Circle Mapper.
All other trademarks mentioned herein belong to their respective owners.
Please see credits for attibutions and further copyright information.

  Follow gcmap on Facebook Follow gcmap on Twitter

hCard Microformat

Geo Microformat